Tracking 20037 objects as of 21-Nov-2019
Live streaming from Space Station
objects crossing your sky now

XSS 10

Track XSS 10 now!
10-day predictions
XSS 10 is classified as:


NORAD ID: 27664
Int'l Code: 2003-005B
Perigee: 516.5 km
Apogee: 762.7 km
Inclination: 39.7 °
Period: 97.4 minutes
Semi major axis: 7010 km
RCS: 0.183 m2 (medium)
Launch date: January 29, 2003
Source: United States (US)
Launch site: AIR FORCE EASTERN TEST RANGE (AFETR)
aabbcc
Your satellite tracking list
Your tracking list is empty




NASA's NSSDC Master Catalog

Two Line Element Set (TLE):
1 27664U 03005B   19324.48993382  .00000044  00000-0  20437-4 0  9996
2 27664  39.7493  74.2147 0175613 114.8118 247.1040 14.79000481906382
Source of the keplerian elements: AFSPC